Location: Mountain View
(37.3861°N, 122.0839°W)
Time: 20:48:28
(UTC-07:00)

ISS - Pass Details

Date: 01 October 2021
Orbit: 417 x 423 km, 51.6° (Epoch: 23 October)

Event Time Altitude Azimuth Distance (km) Brightness Sun altitude
Rises 20:36:14 0° 317° (NW) 2,364 0.9 -21.7°
Reaches altitude 10° 20:38:30 10° 328° (NNW) 1,499 -0.4 -22.1°
Enters shadow 20:40:21 24° 355° (N) 922 -1.9 -22.5°
